Presure
94 153 113 99 99 103 100 102 120 100 100 101 123 146 105 150 124 145 133 144 106 107 121 177 122 124 134 141 151 155 159 150 140 181 160 171 178 85 183 123 121 78 157 115 156 96 87 86 80
87 98 94 99 94 98 134 104 110 99 95 99 120 125 130 155 158 140 145 125 152 103 151 142 118 107 135 145 142 157 117 131 110 145 173 170 174 131 170 158 107 79 79 84 104 81 77 79 93
87 103 97 111 96 101 98 102 98 106 99 98 102 115 122 124 131 139 126 137 132 148 140 139 146 118 136 157 146 124 132 138 116 153 111 104 109 96 178 164 91 104 83 99 96 77 84 82 83
150 84 89 96 94 89 92 100 95 140 103 98 114 109 121 116 129 130 138 148 140 134 142 150 152 148 154 149 153 125 106 155 128 149 111 152 108 85 92 111 78 92 100 98 90 73 87 81 72
91 84 82 88 89 96 98 137 101 91 101 96 164 101 121 116 119 123 124 138 142 135 137 142 168 148 147 142 157 149 153 153 154 151 154 125 129 85 95 89 107 88 88 87 75 96 76 80 92
87 81 93 127 90 95 95 95 126 114 103 101 109 98 171 109 121 122 126 126 133 134 137 139 142 141 139 179 193 152 148 153 157 125 152 151 109 120 83 97 104 107 105 90 99 103 88 80 80
113 78 88 89 85 93 89 93 194 96 102 102 103 105 123 167 129 136 171 129 140 139 138 139 141 137 138 151 161 168 152 149 193 149 148 115 126 108 105 99 88 106 108 103 106 96 102 91 83
106 81 157 90 79 101 96 95 160 100 104 94 102 96 98 157 195 119 111 112 134 164 133 133 140 139 139 137 190 180 190 142 147 147 150 146 146 106 104 65 86 101 103 106 107 107 106 105 103
185 202 107 93 89 92 142 89 101 102 114 103 104 132 101 102 97 114 115 130 139 139 133 123 134 133 131 137 211 142 179 181 150 147 147 150 151 153 125 109 132 104 105 135 107 89 77 99 101
211 214 202 89 84 83 84 110 90 90 95 97 160 187 103 95 99 96 172 108 168 183 179 172 204 180 128 141 163 197 144 196 135 141 143 150 148 175 154 153 139 152 152 169 153 145 122 100 151
213 207 201 198 83 99 91 109 90 112 123 94 96 95 101 99 90 96 97 162 158 118 167 138 124 130 148 135 130 134 135 154 193 139 141 153 162 144 143 144 145 112 197 187 191 189 143 165 151
225 206 206 199 198 118 88 85 100 87 162 91 95 94 99 100 105 89 90 107 163 116 144 111 149 107 131 133 125 192 201 136 184 139 145 194 144 196 185 151 176 152 198 202 204 144 144 196 201
221 214 203 206 200 197 203 130 190 126 123 104 98 96 95 97 102 100 102 100 103 177 197 100 97 176 165 111 204 136 125 124 139 134 169 137 140 149 165 195 198 199 140 142 135 155 195 197 222
232 214 208 203 204 179 199 198 126 188 167 98 96 91 100 100 98 100 96 103 102 112 128 136 109 101 100 146 128 122 122 130 158 131 136 137 174 136 157 138 136 134 135 133 186 191 197 165 201
239 222 215 205 203 191 202 209 196 98 97 103 100 99 99 96 98 141 104 102 100 103 102 102 99 103 103 100 104 109 128 116 159 124 200 195 198 142 126 130 128 132 191 192 190 190 186 219 222
250 232 221 214 202 189 196 161 201 201 198 129 93 190 93 93 97 131 111 104 103 102 104 104 96 111 99 103 98 103 104 106 139 200 184 122 120 184 194 186 200 193 150 147 193 192 226 213 193
342 233 226 212 210 201 206 102 173 194 201 202 97 147 92 99 88 95 95 197 100 99 102 103 102 103 109 140 104 105 99 116 113 195 127 130 195 190 194 194 168 187 186 190 188 185 215 212 234
348 252 225 219 203 208 199 196 193 196 184 188 192 198 199 195 198 171 167 95 97 94 102 104 123 146 182 98 100 100 105 132 191 192 125 124 148 158 122 114 140 167 186 197 189 219 205 210 204
358 369 241 219 209 212 140 196 211 199 179 183 188 189 188 180 195 191 199 192 193 139 98 97 182 180 179 180 189 196 190 191 191 191 191 192 136 183 180 179 180 181 183 185 161 216 202 200 209
348 367 279 228 218 219 199 199 195 198 157 159 189 186 187 180 183 183 196 194 185 191 187 183 176 167 183 181 168 102 192 148 135 191 192 185 181 178 178 177 180 107 200 193 203 207 194 199 193
349 357 358 213 226 218 220 205 202 201 194 197 200 174 189 187 185 181 187 189 167 180 186 186 183 182 183 181 178 102 108 188 142 185 181 175 177 179 129 178 180 194 199 209 214 199 191 197 197
355 345 346 293 242 226 220 86 209 202 205 193 188 193 161 185 191 180 178 182 183 183 174 183 183 182 127 121 115 120 111 131 147 179 176 174 177 179 178 179 191 187 199 210 184 191 182 176 171
380 360 354 353 258 240 224 215 205 197 205 204 199 191 189 186 155 190 181 178 167 126 179 180 182 177 177 179 126 126 120 125 146 173 177 179 179 177 175 187 191 203 206 198 194 192 160 162 178
254 387 360 354 357 261 242 229 210 207 193 205 192 200 195 182 183 159 153 182 179 178 172 174 178 179 178 174 172 174 176 179 180 179 178 179 176 176 186 193 202 205 211 194 192 186 164 166 107
237 267 395 362 355 361 253 249 215 211 199 199 196 183 193 198 187 180 177 179 179 180 180 179 174 172 174 174 175 177 176 176 174 172 174 177 187 190 190 199 200 197 128 187 189 171 89 109 108
228 237 336 374 369 372 350 259 239 213 205 200 196 198 194 180 196 177 189 179 177 180 179 179 177 176 176 176 180 180 181 177 177 183 189 190 191 193 195 190 189 98 180 182 151 170 174 174 170
228 226 238 332 369 365 365 383 254 231 212 206 197 197 190 187 186 186 188 192 187 186 187 189 186 183 184 184 183 184 181 187 190 193 193 193 194 190 171 179 180 154 164 132 154 176 174 156 174
207 220 226 237 323 362 361 367 390 244 223 209 200 200 198 190 185 185 184 183 186 192 188 190 192 194 195 193 192 177 194 192 171 184 179 175 180 179 142 90 180 173 166 160 171 177 173 204 186
193 205 220 228 234 261 350 360 322 377 244 222 209 200 198 196 188 181 184 187 188 182 184 184 182 185 187 189 189 166 167 171 169 172 173 172 144 171 173 173 135 170 173 170 175 167 161 213 162
206 201 203 221 228 232 327 401 349 375 359 244 224 212 206 201 200 195 189 187 182 188 185 182 184 182 185 186 173 182 184 183 180 176 177 178 186 184 187 183 164 195 206 192 183 195 195 160 196
Wind_Speed
20 53 33 21 22 27 25 27 38 17 14 17 28 41 17 41 26 36 30 31 26 24 24 37 22 22 24 27 28 28 29 28 23 31 27 30 31 9 33 16 14 6 31 15 31 16 6 5 5
18 26 21 25 22 26 44 33 31 20 19 20 27 31 31 44 44 33 35 28 33 26 32 31 25 22 28 30 28 29 23 25 22 26 32 32 32 19 30 28 14 6 3 7 13 6 2 2 14
22 29 28 37 27 30 28 29 19 25 23 25 21 25 28 28 34 35 31 32 30 31 31 31 32 27 31 32 30 27 28 29 25 30 23 18 21 16 34 32 14 17 10 18 18 3 7 5 7
62 25 26 33 28 27 26 31 22 53 27 24 31 20 28 26 34 32 34 39 34 30 31 34 34 32 33 30 31 29 24 34 29 32 27 30 23 18 17 22 12 16 20 21 17 5 14 7 5
32 30 30 30 28 40 37 50 33 28 28 25 60 22 33 29 31 30 30 34 36 32 32 32 39 33 32 31 34 35 35 36 36 35 35 31 28 19 20 18 26 17 17 17 6 25 7 10 25
37 32 44 55 29 39 33 29 45 41 33 27 32 25 60 25 34 31 34 33 34 34 35 34 34 30 31 40 39 38 35 36 38 31 37 36 30 32 19 25 29 32 31 22 28 33 22 19 18
49 34 42 33 29 43 26 29 71 38 38 32 31 28 32 55 41 48 54 37 39 39 37 35 36 31 33 36 39 40 36 36 44 39 38 30 34 32 32 29 21 33 36 35 35 30 35 28 20
46 38 68 45 33 53 42 36 64 41 41 29 34 27 26 51 57 38 27 27 39 53 36 35 38 34 35 35 44 46 45 37 40 40 41 39 39 33 34 9 24 35 37 40 40 41 41 41 39
72 83 61 53 42 48 61 29 42 43 39 39 37 47 33 28 27 30 34 40 44 45 40 31 36 34 36 38 45 38 48 48 42 40 41 43 44 44 41 39 42 39 41 42 43 28 20 40 41
86 86 84 44 35 37 34 42 36 36 35 33 68 67 34 32 30 30 60 34 56 58 57 52 54 49 34 41 41 46 42 49 39 40 42 45 44 46 45 44 45 45 46 47 42 39 37 35 50
88 85 87 88 32 52 48 45 40 49 54 35 33 36 38 37 31 32 33 58 54 34 51 41 36 39 47 39 38 39 40 44 49 41 43 46 48 44 44 44 44 46 50 49 50 50 48 53 49
96 88 89 90 90 54 49 43 49 43 73 40 40 39 40 35 37 33 32 34 59 37 49 33 48 32 36 41 37 48 49 43 51 43 47 50 47 50 51 48 50 47 50 50 50 47 49 57 58
95 94 88 93 90 89 89 61 79 62 58 52 46 43 41 38 40 39 39 38 35 63 56 34 34 44 41 36 45 39 38 37 42 43 48 46 48 49 51 52 51 52 43 47 45 49 54 56 59
101 93 93 92 92 77 88 84 64 77 74 55 49 40 50 49 42 44 38 42 40 40 47 42 37 35 36 45 45 39 39 43 48 45 48 50 51 48 48 46 44 43 45 45 52 52 53 51 58
103 98 96 92 93 85 91 87 77 41 57 62 58 51 51 47 45 61 48 43 39 41 41 41 38 38 39 37 36 38 46 42 48 45 53 53 51 55 43 44 42 46 50 53 55 53 52 56 58
103 102 97 95 94 85 87 60 81 79 78 51 43 74 43 42 46 55 51 47 46 44 45 45 38 47 40 40 38 38 40 41 48 53 51 49 47 52 51 53 52 52 56 53 54 53 61 55 57
80 100 100 99 98 96 93 35 75 79 77 74 52 65 41 56 35 40 39 63 45 45 48 48 45 45 48 47 41 41 39 46 47 53 54 56 52 51 52 51 56 55 57 57 55 52 57 54 61
73 103 102 103 96 99 89 87 86 84 76 76 74 70 67 66 69 65 57 44 45 40 50 54 49 51 55 42 42 40 44 50 55 54 56 55 49 55 50 47 51 58 59 59 56 63 54 54 49
63 70 106 103 102 101 55 91 93 86 75 74 73 71 71 72 69 66 67 65 64 56 45 39 58 57 57 55 55 56 55 56 56 56 56 55 64 52 55 57 60 61 61 60 58 61 54 50 51
57 60 101 110 109 105 92 94 90 83 58 64 77 74 76 74 70 70 69 69 63 62 62 61 60 56 58 59 60 47 59 64 66 59 57 54 55 56 59 60 61 56 63 61 64 58 54 51 53
53 56 62 98 114 105 104 96 93 89 82 83 80 70 76 74 73 70 69 68 61 63 61 61 61 60 60 61 62 51 55 60 66 60 57 58 58 60 50 63 64 64 64 70 67 58 56 54 53
49 58 68 98 119 108 107 29 95 92 89 85 80 78 63 76 74 72 70 71 69 65 63 63 63 63 73 71 67 69 65 72 68 62 62 62 62 63 64 66 67 65 70 71 62 60 57 59 57
41 58 63 69 119 116 107 98 89 89 91 83 84 80 81 78 65 75 75 74 64 78 69 66 65 65 65 66 73 72 72 73 69 65 65 65 65 66 68 69 69 74 73 67 64 64 59 60 59
53 50 62 69 71 121 111 103 96 91 82 89 83 87 84 79 79 71 71 77 75 73 70 69 68 68 70 71 71 69 68 67 67 67 68 67 68 70 72 72 76 76 76 67 67 65 63 65 59
42 46 52 63 75 75 115 112 94 96 90 90 89 82 84 84 82 80 81 80 79 76 74 73 73 72 72 73 72 73 72 71 70 70 71 71 72 73 74 77 75 73 60 70 69 67 58 63 66
32 39 17 55 58 60 77 114 99 102 98 96 93 90 85 79 85 78 85 83 81 78 77 76 76 75 76 76 76 76 76 75 74 76 76 75 76 77 76 75 75 56 75 73 67 71 71 69 69
35 29 36 19 46 52 60 65 108 105 103 99 96 92 87 85 86 87 87 87 84 82 81 79 79 79 79 78 79 80 80 80 80 79 79 79 79 78 78 79 79 69 76 69 67 75 74 69 74
21 23 24 32 20 39 44 52 57 107 105 103 98 98 95 93 90 91 90 88 84 83 82 81 81 81 80 80 81 78 82 82 78 80 80 79 80 81 72 59 84 83 80 74 79 79 77 79 80
30 19 21 25 28 25 34 39 62 59 110 109 108 104 103 101 97 92 92 90 87 83 83 83 83 83 82 82 83 80 80 81 81 82 82 83 74 84 87 88 78 86 88 84 85 83 78 83 76
29 23 18 23 28 27 14 21 42 48 63 112 109 109 107 104 102 99 94 92 87 88 86 85 85 85 84 85 85 86 86 86 85 85 86 88 89 91 92 94 88 93 91 95 94 93 92 79 90
Wind_Direction
239 233 244 233 236 237 239 247 244 221 219 240 242 244 235 244 248 243 244 246 225 236 256 260 261 255 276 281 277 276 273 274 261 256 268 263 261 199 264 239 265 179 262 244 261 234 278 305 18
233 243 241 241 239 243 240 247 249 230 227 238 242 246 243 241 249 245 247 245 254 232 260 261 248 239 276 276 272 249 245 262 243 265 265 265 268 251 269 267 245 207 199 247 256 248 13 317 273
241 236 241 243 248 249 247 251 237 245 233 232 240 252 249 245 248 246 250 250 252 255 260 260 264 251 272 268 276 251 248 264 247 277 242 235 241 229 267 268 236 241 243 251 254 284 271 301 321
238 236 233 239 242 239 241 249 236 237 239 234 255 247 248 247 249 252 251 250 253 256 258 263 266 266 269 271 271 256 248 275 259 279 243 278 241 226 234 241 241 251 257 262 263 274 267 295 311
236 232 238 238 231 241 250 239 248 234 239 232 240 227 248 247 248 252 253 254 253 255 257 261 263 267 267 269 269 271 272 274 274 276 275 252 265 234 249 246 248 248 250 257 253 268 283 299 282
239 237 242 240 243 245 242 240 241 248 250 245 250 233 249 244 252 250 253 253 255 256 258 259 263 264 265 264 263 268 269 270 271 257 272 276 248 252 239 256 256 253 254 258 257 260 269 272 286
231 233 241 234 230 244 231 229 238 247 248 244 247 244 243 249 248 252 253 253 256 255 259 261 262 260 265 269 266 266 267 268 266 271 275 258 263 252 255 257 256 259 258 262 267 273 270 272 284
231 233 229 237 233 240 242 235 238 243 245 232 242 238 237 249 251 248 243 247 255 253 258 259 261 258 263 263 266 266 265 266 267 270 273 276 278 257 257 281 253 262 264 265 267 270 270 271 273
230 224 236 235 229 236 237 234 243 244 241 247 246 244 242 239 244 248 248 253 253 254 256 252 259 254 259 263 259 266 265 266 268 271 273 275 277 279 265 263 270 263 265 282 268 270 280 275 276
228 223 224 234 233 245 251 237 248 249 247 242 241 243 245 240 236 247 255 254 258 261 263 261 262 263 254 263 264 263 268 265 265 269 272 273 275 278 280 282 274 284 286 290 287 291 291 285 288
226 224 223 227 234 237 246 242 248 244 243 245 244 242 244 240 240 239 248 253 258 258 262 254 254 257 259 259 260 264 266 268 268 271 273 274 275 278 280 282 283 264 292 291 294 297 292 290 289
221 224 222 227 229 236 245 248 246 243 239 246 242 244 247 244 247 246 249 255 254 253 259 255 256 256 256 257 259 261 264 269 267 273 274 276 277 281 281 280 286 283 292 297 297 292 294 297 301
222 221 225 226 229 231 233 238 231 242 241 246 248 247 250 247 246 247 248 248 253 261 256 256 260 261 260 261 265 264 265 266 269 272 275 277 276 277 280 287 291 293 286 289 286 289 298 301 309
219 223 223 228 228 233 232 232 239 233 236 244 244 240 250 252 246 248 248 249 249 252 256 253 255 258 263 262 262 263 264 266 270 271 271 272 278 275 281 280 282 281 285 285 293 295 301 295 303
217 221 223 226 229 232 232 232 231 241 246 240 243 244 245 252 256 251 253 254 253 255 256 257 257 258 259 264 268 268 265 266 270 268 274 275 280 277 275 279 277 282 294 294 295 300 300 311 313
217 220 223 225 230 234 233 230 231 231 231 243 253 236 249 253 258 254 256 259 259 259 259 259 257 262 260 262 264 266 268 270 270 275 276 273 273 283 287 289 293 292 287 288 299 301 315 308 305
221 219 221 227 228 231 231 225 233 232 232 232 250 242 248 254 255 258 262 245 259 258 260 261 261 262 265 262 262 263 266 268 270 275 271 274 283 284 287 289 285 289 290 295 298 300 309 309 319
227 216 222 224 231 231 232 228 232 231 231 232 233 233 235 237 240 245 243 257 260 256 261 262 256 258 261 259 262 264 266 269 273 276 271 272 275 280 274 270 277 286 291 298 298 312 303 308 307
230 224 219 225 230 231 234 231 230 232 233 234 234 233 234 238 236 239 238 240 241 251 257 251 256 257 260 263 267 268 269 270 272 274 276 278 276 279 279 282 284 287 290 294 291 309 301 301 309
231 228 216 222 228 229 232 231 233 236 233 241 234 236 236 242 242 244 237 239 245 245 246 250 256 259 262 264 265 268 268 268 269 273 275 275 276 277 279 280 284 273 297 294 303 302 295 301 298
233 230 224 220 225 228 229 230 231 235 233 235 234 238 237 240 242 245 244 243 249 248 249 251 254 258 260 263 264 272 271 269 270 272 273 272 275 278 278 282 285 292 294 302 304 296 293 298 299
233 230 225 218 223 227 228 237 229 233 234 234 236 237 242 242 241 246 249 249 250 249 253 251 253 256 255 259 265 265 272 268 270 270 271 273 276 279 280 282 288 287 295 300 291 291 290 291 293
239 231 228 225 220 225 228 230 232 233 236 235 237 238 239 239 245 242 245 248 248 249 250 252 253 256 258 260 262 264 268 269 270 270 272 275 277 278 278 284 287 295 295 292 291 292 288 291 294
6 238 230 228 226 224 228 228 232 234 239 237 237 238 239 240 241 244 246 245 247 250 252 253 254 255 257 259 262 265 266 267 269 271 273 275 276 278 282 286 291 293 296 289 290 289 290 291 292
6 4 235 231 230 229 227 229 228 234 237 238 238 239 239 239 240 242 245 246 247 248 248 250 253 255 257 260 262 264 266 268 270 271 273 275 279 281 282 287 289 287 283 286 288 288 290 291 291
4 9 315 234 236 233 230 229 226 230 234 237 238 240 240 241 241 242 243 245 247 248 249 251 252 254 257 259 262 264 266 268 270 272 275 277 278 280 282 282 282 276 284 286 287 288 290 291 292
353 8 9 278 239 237 237 238 228 228 232 234 238 240 241 241 242 243 244 245 246 248 249 250 251 253 255 258 261 263 265 268 272 274 276 277 279 279 279 280 281 284 284 286 286 288 290 289 293
308 348 358 7 290 249 244 240 237 228 229 234 237 239 240 241 242 243 244 245 246 248 250 252 254 257 258 260 262 265 268 269 271 270 272 274 276 277 277 278 281 283 285 284 287 288 290 292 291
292 307 346 3 2 350 244 242 233 231 226 227 232 234 238 239 241 242 244 246 247 247 249 251 253 254 256 259 261 264 266 267 269 270 272 274 275 277 278 280 282 284 285 285 288 290 290 289 292
301 287 291 337 354 360 308 230 237 230 227 227 230 234 236 239 241 244 246 248 248 250 250 251 253 255 257 259 262 263 265 268 270 272 274 275 277 277 279 279 283 282 283 283 287 285 286 291 289